[[{"header":{"parameterUnit":"m.s-1","parameterCategory":1,"la1":30.2991,"la2":30.254,"lo1":-89.0895,"lo2":-89.0444,"dy":0.0017,"dx":0.0017,"nx":28,"ny":28,"refTime":"2025-04-18T09:00:00:Z","depth":0,"parameterNumber":2,"parameterNumberName":"U-component_of_WINDS"},"data":[0,0,0,0,0,0,0,0,0,0,0,0,0,0,0,0,0,0,0,0,0,0,0,0,0,0,0,0,0,0,0,0,0,0,0,0,0,0,0,0,0,0,0,0,0,0,0,0,0,0,0,0,0,0,0,0,0,0,-4.635,-4.6352,0,-4.6494,-4.6496,-4.6497,-4.6505,-4.6503,-4.6502,-4.65,-4.6647,-4.6652,-4.6657,0,0,0,0,0,0,0,0,0,0,0,0,0,-4.6083,-4.6087,-4.635,-4.6352,-4.6354,-4.6494,-4.6496,-4.6498,-4.6505,-4.6503,-4.6501,-4.6499,-4.6645,-4.6651,-4.6658,0,0,0,0,0,0,0,0,0,0,0,0,0,-4.621,-4.6089,-4.635,-4.6374,-4.6378,-4.6494,-4.6496,-4.6498,-4.6506,-4.6503,-4.6501,-4.6498,-4.6643,-4.6651,-4.6659,-4.6759,0,0,-4.6684,-4.6687,0,0,0,0,0,0,0,0,-4.6203,-4.622,-4.6369,-4.6373,-4.6377,-4.6479,-4.6455,-4.6586,-4.6506,-4.6457,-4.65,-4.6497,-4.6593,-4.6605,-4.6637,-4.6766,-4.6772,-4.6684,-4.6689,-4.6693,-4.6695,0,0,0,0,0,0,0,-4.6194,-4.6213,-4.6407,-4.6371,-4.6376,-4.6378,-4.6394,-4.648,-4.6537,-4.6461,-4.6462,-4.6479,-4.6594,-4.6629,-4.6641,-4.6775,-4.6684,-4.6691,-4.6696,-4.67,-4.6995,-4.6998,0,0,0,0,0,0,-4.618,-4.6206,-4.6402,-4.6411,-4.6282,-4.6385,-4.6402,-4.6449,-4.6536,-4.6547,-4.6481,-4.6479,-4.6617,-4.6631,-4.6646,-4.677,-4.6693,-4.67,-4.6705,-4.6992,-4.6995,-4.6999,0,0,0,0,0,0,-4.6174,-4.6198,-4.6397,-4.6309,-4.6335,-4.6393,-4.6445,-4.6453,-4.6488,-4.6551,-4.6561,-4.6506,-4.6615,-4.6634,-4.6731,-4.6775,-4.6704,-4.6712,-4.6988,-4.6993,-4.6997,-4.7017,0,0,0,0,0,0,-4.6167,-4.6195,-4.6234,-4.631,-4.6339,-4.6479,-4.6447,-4.6458,-4.6502,-4.6501,-4.6577,-4.6588,-4.6615,-4.6719,-4.674,-4.6785,-4.6718,-4.6985,-4.699,-4.6996,-4.7013,-4.7022,-4.703,0,0,0,0,0,-4.6157,-4.6233,-4.6236,-4.6259,-4.6388,-4.6482,-4.6498,-4.6528,-4.6505,-4.6545,-4.6586,-4.6585,-4.6768,-4.6729,-4.6752,-4.68,-4.6982,-4.6989,-4.6995,-4.7009,-4.702,-4.7029,0,0,0,0,0,0,-4.6159,-4.6243,-4.6247,-4.635,-4.6409,-4.6483,-4.6532,-4.6538,-4.6604,-4.66,-4.6634,-4.6652,-4.6748,-4.6784,-4.674,-4.6903,-4.6872,-4.6884,-4.6875,-4.6886,-4.6894,-4.6882,-4.6725,0,0,0,0,0,-4.6172,-4.6241,-4.6311,-4.6395,-4.6425,-4.6474,-4.6516,-4.6534,-4.6596,-4.662,-4.6669,-4.6729,-4.68,-4.6845,-4.6914,-4.702,-4.7037,-4.7065,-4.7073,-4.7079,-4.7088,-4.7147,-4.716,-4.702,-4.702,-4.702,0,0,-4.6198,-4.6253,-4.6294,-4.6397,-4.6445,-4.6515,-4.6494,-4.657,-4.6622,-4.6632,-4.6726,-4.6764,-4.6834,-4.6935,-4.6983,-4.6969,-4.7131,-4.7088,-4.7092,-4.7098,-4.7155,-4.7169,-4.718,-4.7025,-4.7024,-4.7023,0,0,-4.6282,-4.6331,-4.6406,-4.6455,-4.6528,-4.6561,-4.658,-4.6654,-4.6679,-4.6775,-4.6784,-4.6848,-4.6969,-4.7018,-4.7059,-4.7166,-4.7168,-4.7188,-4.723,-4.7287,-4.7298,-4.7308,-4.7345,-4.7358,-4.7197,-4.7197,-4.7197,0,-4.6305,-4.6412,-4.6444,-4.652,-4.6565,-4.6579,-4.6656,-4.6702,-4.6794,-4.6825,-4.6808,-4.6962,-4.701,-4.7124,-4.715,-4.7183,-4.7205,-4.7177,-4.7294,-4.7304,-4.7314,-4.735,-4.7364,-4.7199,-4.7199,-4.7198,-4.7198,0,-4.6437,-4.6511,-4.6564,-4.6652,-4.6704,-4.678,-4.6825,-4.6873,-4.6888,-4.6923,-4.7021,-4.708,-4.7161,-4.719,-4.7205,-4.7307,-4.7296,-4.7287,-4.7256,-4.7329,-4.7363,-4.7377,-4.7201,-4.7201,-4.72,-4.72,0,0,-4.6522,-4.663,-4.6649,-4.669,-4.6773,-4.6831,-4.6909,-4.6989,-4.703,-4.7094,-4.716,-4.7264,-4.7257,-4.7303,-4.7325,-4.7375,-4.7456,-4.736,-4.7362,-4.7374,-4.7571,-4.7576,-4.7591,-4.7459,-4.7462,-4.7464,-4.7565,0,-4.6614,-4.6751,-4.6785,-4.6903,-4.6972,-4.6988,-4.7056,-4.7114,-4.715,-4.7214,-4.7254,-4.7327,-4.7312,-4.7341,-4.7392,-4.7435,-4.7495,-4.7428,-4.752,-4.7523,-4.7499,-4.7609,-4.7614,-4.7706,-4.7579,-4.7581,-4.7583,0,-4.6738,-4.6805,-4.693,-4.7006,-4.7036,-4.7097,-4.7174,-4.7235,-4.7303,-4.7326,-4.738,-4.7396,-4.7479,-4.7446,-4.756,-4.7514,-4.7554,-4.7582,-4.7586,-4.7593,-4.7555,-4.7618,-4.7737,-4.7749,-4.7604,-4.7603,-4.7601,0,-4.6786,-4.6908,-4.6999,-4.7034,-4.7125,-4.7167,-4.7207,-4.7273,-4.7319,-4.7388,-4.7418,-4.7495,-4.7537,-4.7596,-4.7634,-4.7607,-4.7745,-4.7715,-4.7765,-4.7764,-4.7791,-4.7788,-4.7915,-4.7821,-4.782,-4.782,-4.782,0,-4.6883,-4.6959,-4.7022,-4.7078,-4.7163,-4.7202,-4.7286,-4.7326,-4.7385,-4.7449,-4.7469,-4.7529,-4.7576,-4.7643,-4.7673,-4.7763,-4.7782,-4.7802,-4.7809,-4.7799,-4.7796,-4.7823,-4.7817,-4.7824,-4.7823,-4.7822,-4.7822,0,-4.695,-4.6995,-4.7095,-4.7174,-4.7196,-4.7256,-4.7323,-4.7379,-4.7416,-4.7497,-4.7519,-4.7578,-4.7658,-4.7702,-4.7802,-4.7823,-4.7922,-4.7927,-4.7899,-4.7902,-4.7948,-4.7943,-4.8096,-4.8117,-4.801,-4.8011,-4.8012,0,-4.7007,-4.7066,-4.7152,-4.7197,-4.7237,-4.7309,-4.7357,-4.7399,-4.7449,-4.7532,-4.7577,-4.7659,-4.7725,-4.7852,-4.7904,-4.7981,-4.7987,-4.8035,-4.7998,-4.7987,-4.7986,-4.7981,-4.7987,-4.804,-4.8041,-4.8042,-4.8043,0,-4.7105,-4.7125,-4.7194,-4.7272,-4.7329,-4.7392,-4.7455,-4.749,-4.7543,-4.7598,-4.768,-4.7732,-4.7835,-4.7915,-4.7998,-4.8039,-4.805,-4.8055,-4.807,-4.8059,-4.804,-4.805,-4.7914,-4.805,-4.8049,-4.8049,-4.8048,-4.8048,-4.7168,-4.7221,-4.729,-4.7367,-4.7419,-4.7477,-4.7533,-4.7579,-4.7648,-4.7735,-4.7756,-4.7843,-4.7912,-4.8023,-4.8067,-4.8136,-4.8127,-4.8149,-4.8155,-4.8159,-4.816,-4.8032,-4.8151,-4.8151,-4.8151,-4.8151,-4.8151,0,-4.7265,-4.7311,-4.7381,-4.7469,-4.7529,-4.7536,-4.7607,-4.7657,-4.7732,-4.7796,-4.7862,-4.7957,-4.8036,-4.8096,-4.8177,-4.822,-4.8227,-4.824,-4.8236,-4.8245,-4.8164,-4.8142,-4.8233,-4.8233,-4.8233,-4.8233,-4.8233,-4.8233,-4.7322,-4.7412,-4.7442,-4.7559,-4.7605,-4.7689,-4.7729,-4.7784,-4.7834,-4.794,-4.8006,-4.8044,-4.8107,-4.8193,-4.8266,-4.8282,-4.831,-4.8321,-4.8337,-4.826,-4.8251,-4.8242,-4.8221,-4.8328,-4.8328,-4.8413,-4.8413,-4.8414]},{"header":{"parameterUnit":"m.s-1","parameterCategory":1,"la1":30.2991,"la2":30.254,"lo1":-89.0895,"lo2":-89.0444,"dy":0.0017,"dx":0.0017,"nx":28,"ny":28,"refTime":"2025-04-18T09:00:00:Z","depth":0,"parameterNumber":3,"parameterNumberName":"V-component_of_WINDS"},"data":[0,0,0,0,0,0,0,0,0,0,0,0,0,0,0,0,0,0,0,0,0,0,0,0,0,0,0,0,0,0,0,0,0,0,0,0,0,0,0,0,0,0,0,0,0,0,0,0,0,0,0,0,0,0,0,0,0,0,3.8758,3.8759,0,3.8802,3.8802,3.8803,3.8787,3.8786,3.8785,3.8784,3.8825,3.8827,3.8829,0,0,0,0,0,0,0,0,0,0,0,0,0,3.8661,3.8663,3.8758,3.8759,3.8759,3.8801,3.8802,3.8803,3.8787,3.8786,3.8785,3.8783,3.8825,3.8827,3.8829,0,0,0,0,0,0,0,0,0,0,0,0,0,3.8704,3.8664,3.8758,3.8757,3.8757,3.8801,3.8802,3.8803,3.8787,3.8786,3.8784,3.8783,3.8824,3.8827,3.883,3.8877,0,0,3.8839,3.884,0,0,0,0,0,0,0,0,3.8701,3.8707,3.8756,3.8757,3.8757,3.8787,3.8783,3.8828,3.8788,3.8776,3.8784,3.8782,3.8814,3.8817,3.8829,3.8879,3.8881,3.8839,3.8841,3.8842,3.8843,0,0,0,0,0,0,0,3.8698,3.8705,3.8775,3.8757,3.8758,3.8754,3.8758,3.8791,3.8802,3.8776,3.8775,3.8781,3.8814,3.8826,3.8829,3.8882,3.8839,3.8842,3.8844,3.8845,3.8977,3.8979,0,0,0,0,0,0,3.8695,3.8703,3.8774,3.8776,3.8725,3.8757,3.8761,3.8779,3.8802,3.8804,3.8782,3.878,3.8821,3.8826,3.8831,3.8891,3.8842,3.8845,3.8847,3.8976,3.8978,3.898,0,0,0,0,0,0,3.8693,3.8702,3.8772,3.874,3.8748,3.876,3.878,3.8781,3.8793,3.8806,3.8808,3.8793,3.882,3.8827,3.8867,3.8892,3.8846,3.8849,3.8974,3.8976,3.8979,3.9009,0,0,0,0,0,0,3.8691,3.8701,3.8719,3.874,3.875,3.8808,3.8781,3.8783,3.8798,3.8796,3.8816,3.8818,3.882,3.8863,3.887,3.8895,3.8851,3.8972,3.8975,3.8978,3.9006,3.9012,3.9018,0,0,0,0,0,3.8687,3.8724,3.872,3.8729,3.8773,3.8809,3.8815,3.8816,3.88,3.8819,3.8828,3.8818,3.8888,3.8867,3.8875,3.8901,3.897,3.8974,3.8978,3.9003,3.9011,3.9017,0,0,0,0,0,0,3.8703,3.8727,3.8722,3.8767,3.8787,3.8806,3.8829,3.8824,3.8847,3.8844,3.8844,3.8849,3.8891,3.89,3.8876,3.8951,3.8927,3.8932,3.8943,3.8951,3.8956,3.8953,3.8854,0,0,0,0,0,3.8713,3.8741,3.8759,3.8797,3.8808,3.8817,3.8833,3.8833,3.8852,3.886,3.8872,3.889,3.8917,3.8934,3.8959,3.9007,3.9013,3.903,3.9036,3.904,3.9045,3.9075,3.9083,3.8992,3.8992,3.8992,0,0,3.8731,3.8748,3.8765,3.8801,3.8816,3.8846,3.8824,3.8854,3.8877,3.8864,3.8904,3.8914,3.8935,3.898,3.9001,3.8989,3.9072,3.9045,3.9049,3.9052,3.908,3.9088,3.9096,3.8995,3.8995,3.8994,0,0,3.878,3.8795,3.883,3.8846,3.887,3.8877,3.8886,3.8907,3.8914,3.8954,3.8947,3.8973,3.9017,3.9034,3.9048,3.9109,3.9101,3.9117,3.9148,3.9176,3.9184,3.919,3.9214,3.9222,3.9121,3.9122,3.9122,0,3.88,3.8844,3.8848,3.8881,3.8898,3.8891,3.8927,3.8942,3.8973,3.8985,3.8972,3.9031,3.9044,3.9095,3.9111,3.9121,3.9132,3.9114,3.9182,3.9189,3.9195,3.9218,3.9226,3.9123,3.9123,3.9123,3.9123,0,3.8869,3.89,3.8925,3.8958,3.8978,3.9012,3.9021,3.9041,3.9041,3.9049,3.9092,3.9109,3.9138,3.915,3.9149,3.9202,3.9195,3.9182,3.9158,3.9205,3.9227,3.9235,3.9126,3.9126,3.9125,3.9124,0,0,3.8926,3.8964,3.8973,3.8989,3.9017,3.9041,3.9076,3.9108,3.9126,3.9148,3.9178,3.9219,3.9209,3.9225,3.9226,3.9251,3.9301,3.9235,3.9236,3.9249,3.9364,3.9374,3.9384,3.9296,3.9298,3.9299,3.9363,0,3.8979,3.9042,3.9048,3.9105,3.9135,3.9131,3.9162,3.9183,3.9192,3.922,3.923,3.926,3.9243,3.9253,3.9278,3.9289,3.9324,3.9285,3.9325,3.9326,3.9321,3.9394,3.9404,3.9463,3.9371,3.9372,3.9373,0,3.9048,3.9076,3.9136,3.9164,3.9177,3.9204,3.9235,3.9261,3.9286,3.9291,3.9312,3.931,3.9348,3.9323,3.9375,3.9349,3.9366,3.9374,3.9377,3.9381,3.9353,3.9402,3.9482,3.9491,3.9386,3.9385,3.9384,0,3.9087,3.9138,3.9182,3.9196,3.9229,3.9249,3.9263,3.9286,3.9306,3.9333,3.9347,3.9377,3.9394,3.9417,3.9425,3.9406,3.9478,3.9453,3.9485,3.9485,3.95,3.9499,3.9585,3.9509,3.9509,3.9509,3.9509,0,3.9145,3.9183,3.9201,3.9228,3.9271,3.9278,3.932,3.9333,3.9355,3.9385,3.9382,3.941,3.9418,3.9448,3.9454,3.9498,3.9505,3.9511,3.9512,3.9512,3.9511,3.9523,3.952,3.9511,3.9511,3.951,3.951,0,3.9195,3.9209,3.9257,3.9285,3.9294,3.9324,3.9348,3.9375,3.9386,3.9424,3.9433,3.945,3.9486,3.9496,3.9537,3.9542,3.9594,3.9591,3.9586,3.9587,3.9619,3.9616,3.9716,3.973,3.9644,3.9645,3.9645,0,3.9232,3.9261,3.9295,3.9316,3.9332,3.9365,3.9386,3.9396,3.9418,3.9451,3.9474,3.9509,3.9538,3.9595,3.9611,3.9644,3.9642,3.9675,3.9647,3.9647,3.9645,3.9644,3.9648,3.968,3.9681,3.9682,3.9683,0,3.9297,3.9303,3.9335,3.937,3.9396,3.9424,3.945,3.9467,3.948,3.9506,3.9543,3.9566,3.9611,3.9647,3.9681,3.9696,3.9692,3.9692,3.9701,3.9701,3.9699,3.9703,3.9602,3.9689,3.9688,3.9688,3.9688,3.9687,3.9342,3.937,3.9399,3.9435,3.9457,3.9483,3.9511,3.9527,3.9558,3.9597,3.96,3.9642,3.9669,3.9715,3.9732,3.9764,3.9755,3.9768,3.9771,3.9775,3.9779,3.9693,3.977,3.977,3.977,3.977,3.977,0,3.9409,3.9428,3.9462,3.9501,3.953,3.9526,3.9556,3.9581,3.9618,3.9644,3.9674,3.9719,3.9755,3.9775,3.9811,3.9834,3.9834,3.9843,3.9842,3.9846,3.9784,3.9773,3.9843,3.9843,3.9843,3.9843,3.9843,3.9843,3.9447,3.9494,3.9505,3.9564,3.9583,3.9625,3.9643,3.9668,3.9689,3.974,3.9771,3.9785,3.9809,3.9848,3.9882,3.9887,3.9901,3.9912,3.9916,3.9858,3.985,3.9843,3.9833,3.9915,3.9915,3.9976,3.9977,3.9977]}]]